Theta_e
309 310 310 310 312 313 313 312 313 314 315 315 316 316 317 317 317 317 316 318 320 321 321 321 322 325 328 329 328 325 327 330 329 328 326 327 330 329 329 331 328 324 323 322 321 322 321 321 322 322 325 327 329 332 329 329 328 328 333 334 334 335 333 336 338 334 333 333 329 325 326 330 330 328 325 327 332 333 337 342 340 339 337 333 335 334 333 331
307 309 310 311 311 313 314 313 313 314 314 315 315 316 316 316 316 317 317 317 319 320 320 321 321 323 326 328 329 326 327 329 328 327 327 329 331 330 330 332 329 325 322 322 322 321 322 323 321 323 329 329 330 330 330 331 327 328 335 334 333 335 332 333 334 329 325 325 327 325 326 329 330 329 327 329 332 333 340 341 341 347 339 332 333 332 331 328
306 309 310 311 312 313 314 313 313 314 314 314 315 315 316 316 315 316 317 316 318 320 321 321 321 322 324 327 328 328 327 328 328 328 328 329 329 330 331 331 329 325 322 321 322 322 322 323 321 324 329 329 331 331 331 332 329 332 334 332 333 333 330 329 329 327 322 321 325 324 324 327 328 327 326 329 332 331 339 343 345 351 342 335 332 328 328 326
304 308 310 312 312 313 314 313 314 314 314 314 314 315 315 315 314 315 316 316 317 319 320 321 321 321 323 325 327 328 326 327 329 328 327 327 328 329 331 332 328 323 321 320 320 322 322 321 321 324 328 329 331 331 331 332 332 332 330 331 335 331 330 331 327 324 321 321 324 325 326 325 325 325 325 328 332 331 334 338 344 349 340 334 332 328 327 326
304 306 310 312 312 313 314 314 314 315 314 313 314 314 314 314 314 314 314 315 316 318 320 321 322 320 321 324 327 326 325 329 330 325 325 326 326 328 330 332 329 322 320 320 320 322 322 322 322 324 328 329 330 330 332 332 329 330 329 331 332 328 330 331 323 320 319 320 324 327 326 325 324 324 327 330 332 331 329 330 335 342 337 333 332 328 326 326
306 305 309 311 312 313 314 314 315 315 314 313 314 313 314 314 314 313 314 315 315 317 319 321 321 320 319 324 327 324 326 331 327 323 324 323 323 326 328 331 329 323 320 320 319 321 323 323 324 326 328 330 331 332 334 331 326 330 331 329 328 327 328 327 322 319 319 320 324 326 323 324 325 325 326 328 330 329 328 329 332 336 334 332 331 329 328 327
308 306 308 311 312 313 313 314 314 315 314 314 314 313 314 314 314 313 314 315 315 316 319 320 321 319 319 324 325 323 325 328 323 322 323 322 322 323 327 331 328 323 321 320 320 322 325 326 325 327 329 330 331 331 332 330 327 330 333 331 329 328 327 327 324 319 320 321 321 321 321 324 327 326 325 326 327 327 328 325 326 333 332 332 331 330 329 327
309 307 308 310 312 313 313 314 314 315 314 314 314 314 314 314 314 313 314 316 315 316 319 320 320 319 322 325 324 324 325 325 323 323 323 323 323 321 326 329 325 323 322 320 320 322 326 327 325 326 328 330 332 330 330 331 329 329 332 333 331 328 326 328 327 320 320 321 319 317 320 326 328 324 323 325 326 326 327 322 326 334 332 332 333 331 330 327
309 307 307 309 311 312 312 313 314 314 314 314 313 313 314 315 314 314 314 316 315 316 319 320 320 320 324 324 323 326 327 325 324 324 323 323 323 323 325 327 324 323 321 320 319 321 325 327 327 329 329 330 331 331 331 331 332 331 330 332 332 330 326 324 322 318 319 319 318 318 320 323 323 320 319 325 327 326 330 328 331 336 334 333 333 332 330 328
309 308 308 308 310 311 312 313 313 314 314 314 314 313 314 314 314 314 314 316 315 316 318 320 320 321 323 322 323 328 326 324 325 324 323 323 323 324 326 326 325 323 321 320 319 320 323 326 327 330 331 331 331 332 332 332 334 333 329 330 330 331 326 320 318 318 318 318 318 318 320 321 319 317 318 322 323 324 334 335 333 337 336 334 333 332 330 329
309 308 308 309 310 311 311 312 313 314 314 314 314 314 314 315 314 313 314 316 316 316 318 319 318 319 321 322 324 327 325 324 325 324 323 323 324 325 326 325 323 322 321 320 320 320 322 324 325 327 329 331 331 332 332 332 334 333 329 330 329 330 329 320 317 318 317 318 319 318 319 319 317 317 317 320 320 322 336 340 334 337 337 334 334 332 330 330
308 308 308 309 310 311 311 312 312 313 313 313 314 314 314 315 314 313 315 316 316 317 318 318 317 318 320 322 324 325 324 324 324 324 324 323 324 325 325 324 322 322 322 320 320 320 321 323 324 327 331 332 333 333 332 329 331 334 331 331 331 330 331 325 318 318 318 318 318 318 320 319 317 318 317 319 322 322 334 342 335 336 336 334 334 332 331 330
308 308 308 309 310 311 312 312 312 312 312 313 314 314 314 315 314 314 315 316 317 318 318 317 316 318 320 323 323 323 323 323 324 324 323 322 324 325 324 323 321 321 321 321 321 321 321 322 325 327 330 336 337 333 330 327 329 334 332 330 334 332 331 328 319 317 319 318 318 321 326 326 321 319 317 318 322 322 329 338 336 334 334 335 334 333 332 330
309 308 308 309 310 312 312 312 312 312 312 312 313 313 314 314 314 314 315 316 317 318 317 316 316 318 321 321 321 322 322 322 324 324 323 323 324 324 323 322 321 320 320 321 321 322 322 322 324 325 327 334 334 329 332 334 331 331 332 332 335 336 334 330 320 317 319 316 317 323 327 329 327 324 321 318 319 321 323 328 332 333 334 334 334 334 333 331
308 308 309 309 311 312 311 311 311 312 312 312 313 313 313 313 314 315 315 316 317 318 316 315 317 319 320 320 319 320 320 321 323 324 324 324 323 322 322 321 321 320 320 321 321 322 323 323 324 328 329 328 329 332 338 340 335 331 335 337 336 336 336 332 321 317 320 317 315 321 325 326 325 326 325 320 317 318 319 321 325 330 332 333 334 334 333 332
308 308 309 310 311 311 311 312 311 312 312 313 313 313 313 313 314 314 315 317 318 318 315 316 318 319 319 320 320 320 320 321 323 324 324 323 323 321 321 321 320 320 321 320 321 322 322 324 327 330 332 329 328 335 337 337 339 335 335 338 337 336 335 334 324 316 320 319 314 318 324 326 327 326 323 319 317 316 317 318 319 323 327 330 332 333 333 333
309 308 309 310 311 311 311 311 311 312 312 313 313 313 313 313 314 314 316 317 318 318 315 317 319 317 318 318 319 321 321 321 322 323 323 323 323 321 320 321 320 320 321 320 321 322 324 326 327 327 332 334 331 332 335 337 339 337 335 336 335 334 333 333 329 319 318 320 316 316 320 324 329 329 325 321 317 315 316 317 318 318 321 324 328 331 332 333
309 309 309 310 311 312 311 312 311 312 312 313 313 314 314 314 315 315 315 315 315 316 314 316 318 317 316 315 317 321 321 321 322 323 323 323 322 322 320 321 320 320 322 322 322 324 327 327 326 328 332 334 331 331 336 337 336 337 336 335 333 331 332 332 332 325 318 319 320 318 317 319 322 324 327 325 318 317 316 315 317 318 319 320 322 326 329 331
309 309 309 310 311 312 312 312 311 312 312 313 313 314 314 314 314 313 312 312 313 314 315 316 316 316 316 316 317 320 320 321 322 322 323 322 322 321 321 320 320 321 323 324 325 325 327 328 328 330 332 330 329 330 332 333 333 334 334 334 333 332 331 331 333 328 319 319 320 318 317 317 318 319 321 322 319 319 318 316 316 317 318 319 319 321 324 328
309 309 310 310 311 311 312 312 312 312 312 313 314 313 313 313 314 313 311 312 314 314 317 317 315 315 317 317 317 318 320 321 322 322 322 322 321 321 321 320 321 323 323 325 326 325 325 328 329 330 330 328 328 328 329 330 330 331 332 332 332 333 332 329 331 330 322 320 322 319 318 317 317 318 317 319 319 319 320 318 317 317 317 318 320 320 320 323
309 309 310 311 311 311 312 312 312 312 313 314 313 311 313 313 314 314 312 313 313 311 315 316 314 314 315 315 315 316 319 320 320 321 322 321 320 322 323 322 323 325 324 324 326 326 326 328 328 327 327 327 327 327 327 329 328 329 330 330 331 332 332 329 330 330 324 323 325 321 319 318 318 318 318 317 319 320 320 320 319 317 316 317 319 321 321 320
309 309 310 311 311 311 312 312 312 312 313 314 312 311 313 312 313 313 313 315 314 310 312 315 313 313 312 312 312 314 319 320 319 320 321 322 321 323 324 323 324 325 324 325 326 327 327 328 327 325 326 326 327 327 327 328 329 329 329 330 331 330 331 329 326 326 323 323 329 325 320 319 318 318 318 318 318 319 319 319 319 318 317 316 316 319 320 321
309 309 310 311 311 311 312 312 312 312 313 313 311 311 312 312 312 311 313 316 314 311 312 313 313 313 312 312 311 313 318 320 320 319 320 322 322 323 324 324 325 325 325 326 327 329 329 327 325 324 325 327 328 328 327 328 329 330 331 331 331 329 331 331 325 323 321 323 329 328 323 321 320 319 319 318 317 317 318 318 318 318 318 318 316 316 318 321
310 309 310 311 311 311 311 312 312 313 313 313 312 312 311 312 312 312 314 315 313 312 311 311 312 313 313 312 312 314 316 316 318 318 317 320 324 323 324 324 325 326 325 326 327 328 329 326 323 324 326 326 328 328 328 329 330 330 331 332 331 328 329 331 326 320 320 321 323 325 326 324 321 321 321 319 318 317 316 318 317 317 318 318 318 317 317 318
310 310 310 310 311 311 311 312 312 312 313 312 312 312 311 312 312 312 313 313 312 311 309 309 311 312 312 312 312 314 315 314 315 316 312 315 321 323 324 324 324 326 325 325 326 327 327 325 324 325 326 326 327 329 329 329 331 330 330 331 330 329 329 329 324 320 322 323 322 325 329 330 328 325 322 321 320 319 317 317 317 317 316 316 316 316 316 318
310 309 309 310 310 311 311 312 312 312 312 311 311 312 311 312 312 310 311 312 313 311 309 310 312 313 312 312 313 314 314 314 314 313 311 311 314 318 324 325 324 325 324 324 326 327 326 325 324 324 325 326 327 328 328 329 331 331 330 329 329 330 331 330 324 322 326 326 324 325 329 333 333 329 325 322 321 320 319 319 318 317 317 316 315 315 316 316
310 310 310 310 310 311 311 312 312 312 312 311 311 311 311 311 311 309 311 312 313 311 310 310 310 312 312 312 312 313 315 316 314 313 312 312 311 314 320 324 325 325 324 325 326 327 326 325 326 325 325 326 327 328 327 328 331 332 330 329 330 330 331 332 326 322 327 327 323 322 325 329 330 328 329 327 324 322 321 320 320 318 318 317 316 315 316 315
310 310 310 310 311 311 311 312 312 312 311 311 311 311 310 310 309 309 311 313 312 311 311 310 309 310 312 312 311 313 316 316 316 315 313 312 312 314 316 320 324 326 324 325 328 327 325 326 326 325 326 327 327 327 326 327 330 331 333 332 331 331 331 332 329 325 327 327 325 323 322 326 329 328 330 329 328 327 324 322 321 321 319 319 318 316 315 315
310 310 310 311 311 311 311 312 312 311 311 310 311 310 309 307 307 308 311 312 312 311 311 311 310 311 312 312 311 312 313 315 318 316 312 312 314 316 317 317 320 325 325 325 326 327 325 325 325 325 326 327 325 325 326 327 328 331 333 333 333 334 332 333 333 329 327 328 329 326 322 326 331 330 327 326 328 327 325 323 321 321 321 321 320 319 317 315
310 310 310 311 311 310 310 311 311 311 310 311 311 308 306 307 308 310 311 312 312 311 311 311 311 312 313 312 312 312 311 313 316 315 313 314 314 314 316 317 318 323 326 325 326 327 327 324 324 326 326 326 326 327 327 327 328 330 333 333 334 335 335 335 333 330 328 330 331 329 323 325 331 331 327 325 326 324 323 324 322 321 322 322 322 322 320 317
309 310 310 311 310 309 310 311 311 310 310 311 309 306 306 308 310 311 311 312 313 311 311 312 312 312 313 313 313 312 311 312 313 314 315 315 314 314 315 319 321 323 326 326 325 327 328 326 326 327 325 326 327 328 328 328 329 332 334 334 334 334 334 335 333 330 330 331 331 328 325 325 329 330 327 325 326 325 322 323 323 323 322 321 321 321 321 320
308 310 310 310 309 309 310 311 310 310 311 310 307 307 309 310 310 312 311 310 313 313 312 313 312 313 313 312 313 312 311 312 312 314 315 314 316 315 314 318 322 325 327 328 326 326 328 327 327 327 325 325 327 328 329 329 329 332 332 333 334 334 334 335 333 332 332 332 329 326 325 326 326 329 330 327 325 324 323 323 324 323 323 322 321 321 320 322
308 310 310 310 309 308 309 310 310 310 310 308 308 309 310 311 311 312 310 309 311 313 312 313 312 312 312 312 313 312 311 312 312 313 313 312 314 315 313 314 316 319 321 326 328 328 328 328 327 328 327 325 326 328 330 330 329 331 331 333 335 334 335 337 334 333 334 333 328 322 326 329 327 328 331 328 324 323 322 322 324 324 324 324 323 323 322 322
308 310 310 309 309 308 309 310 310 310 309 308 309 310 311 312 311 311 309 308 310 312 312 313 312 312 312 312 313 312 311 312 311 312 313 311 312 313 313 313 312 311 314 321 327 327 329 330 328 328 328 326 325 327 329 329 330 331 331 332 332 332 337 337 335 336 334 330 323 320 327 334 331 327 323 322 323 322 320 321 323 322 323 324 323 323 324 324
309 309 309 308 308 308 308 309 309 308 308 309 309 311 312 312 310 310 309 308 311 313 313 313 313 313 313 312 312 312 312 313 311 311 312 312 312 313 314 315 312 311 313 320 326 326 328 331 328 327 327 326 326 326 325 327 330 331 331 332 331 335 340 335 332 334 333 329 325 323 327 331 328 324 319 320 323 321 320 322 321 321 322 323 324 324 326 326
308 308 307 307 308 308 309 309 308 308 308 310 311 311 311 311 311 309 308 310 313 314 313 314 314 314 314 313 313 312 313 313 312 311 311 311 312 313 314 314 313 313 314 318 324 326 327 329 327 326 327 326 326 326 325 327 330 330 332 333 330 333 338 334 329 327 329 333 330 325 327 326 324 324 322 322 324 321 321 322 320 320 321 322 324 325 324 325
306 306 306 307 307 308 309 308 307 308 309 310 311 311 310 309 310 309 309 312 313 312 313 315 314 314 315 314 313 313 313 313 312 312 312 311 313 314 313 313 313 313 314 314 319 324 327 328 326 326 328 326 324 326 326 325 328 330 331 331 327 327 330 331 331 327 328 333 332 327 327 326 326 329 325 323 325 322 320 320 319 318 320 321 322 322 322 323
305 305 305 306 307 308 308 307 307 308 309 310 310 310 309 307 307 309 310 311 312 312 314 315 314 314 314 314 313 313 313 313 312 312 313 312 314 314 313 313 313 312 314 315 316 319 324 328 325 324 327 325 324 328 329 327 327 328 328 327 326 330 328 327 331 332 330 333 334 330 326 325 326 326 323 322 325 324 321 321 320 318 319 320 319 320 322 321
305 305 305 305 307 307 307 306 306 307 308 310 310 310 308 307 308 310 311 312 313 313 314 314 314 313 313 313 313 312 312 313 312 313 314 313 314 314 313 314 315 313 315 316 316 316 319 325 326 322 323 324 326 329 331 329 326 325 327 327 328 332 329 328 332 334 334 334 335 332 328 328 326 321 321 322 323 322 321 322 321 319 317 316 318 321 322 321
305 305 304 305 307 308 307 306 306 307 307 308 310 309 307 307 309 310 311 313 312 312 314 314 312 313 313 313 312 312 312 313 312 313 314 313 314 315 313 314 316 315 315 316 315 316 318 323 326 321 319 325 329 329 330 331 327 326 329 329 329 329 327 328 329 331 332 333 334 333 331 333 329 320 319 321 321 320 320 320 321 320 319 317 318 320 320 320
305 305 303 304 306 307 306 306 306 306 306 306 307 307 305 306 309 308 310 313 311 309 312 314 312 312 313 313 313 313 312 312 313 313 314 313 314 316 315 315 316 316 317 317 315 315 317 320 324 321 320 326 329 324 323 327 328 328 329 330 331 329 328 330 330 329 329 330 333 333 329 335 335 322 316 318 320 320 319 318 319 320 320 319 317 317 317 318
305 305 303 304 306 307 306 305 305 304 305 306 306 305 305 308 310 307 308 312 310 308 310 313 313 313 313 312 313 313 312 312 313 313 314 313 313 315 315 315 315 315 318 318 316 315 315 316 320 322 321 323 322 317 316 321 324 326 328 328 330 330 329 331 331 329 328 328 330 329 327 336 336 321 317 319 318 319 321 320 319 320 321 319 317 316 315 316
304 303 303 304 305 305 305 305 305 304 304 304 304 305 306 308 308 307 307 310 309 308 309 311 312 311 311 310 311 312 313 313 312 313 314 313 312 315 316 315 315 316 318 318 316 315 314 316 320 322 321 319 318 317 316 317 320 324 327 326 328 329 327 329 330 328 328 328 329 328 327 337 339 327 321 321 317 317 322 323 322 321 324 325 320 317 317 318
302 301 301 303 303 303 304 305 305 304 304 304 304 305 305 306 306 307 307 308 309 309 309 309 308 309 310 310 310 311 312 313 313 312 313 314 314 314 315 315 316 316 317 317 317 316 315 317 319 322 324 323 321 321 319 318 318 323 326 325 326 328 326 328 329 327 328 329 329 330 330 334 337 329 319 315 314 315 317 320 321 321 327 332 326 321 321 321
302 301 300 300 300 301 302 303 304 305 304 304 304 304 305 305 305 306 307 307 308 311 310 307 307 310 310 309 309 309 309 311 313 311 311 312 313 312 311 313 315 316 316 316 316 316 316 317 319 323 327 326 325 324 322 320 319 320 324 325 325 327 326 327 327 326 329 329 327 329 330 326 323 319 314 311 312 314 315 317 317 316 321 327 326 324 324 322
303 302 301 300 299 300 301 300 303 305 304 304 304 304 305 305 304 305 307 305 305 309 309 307 308 311 310 307 307 307 307 309 311 312 310 310 312 312 310 311 312 315 317 317 316 316 315 315 318 321 323 322 321 319 317 319 320 320 322 324 325 326 326 326 327 327 328 329 327 326 327 323 316 315 315 314 314 315 315 315 314 314 317 321 323 323 322 321
304 302 302 302 301 301 302 301 303 304 303 304 304 304 305 305 304 304 304 303 304 306 307 306 308 312 311 309 309 307 308 308 309 311 311 310 311 310 310 312 313 314 316 316 316 316 316 315 316 318 319 318 316 314 314 317 320 320 321 323 325 326 326 326 327 327 326 328 328 325 325 324 319 316 316 315 314 315 314 314 315 315 316 318 320 321 322 324
303 301 302 303 303 303 303 302 302 303 303 304 304 303 304 304 304 304 304 303 303 305 306 304 306 311 312 311 310 308 308 308 308 309 310 310 310 310 311 314 313 313 315 316 315 316 317 317 317 317 318 317 315 315 315 317 319 319 319 322 324 325 326 326 326 326 325 327 327 324 324 324 321 319 320 318 316 315 315 314 312 312 312 315 320 323 324 325
300 301 301 302 302 303 303 302 302 302 303 304 303 303 303 303 303 303 304 304 303 304 306 305 304 309 310 310 311 309 309 309 309 309 310 309 310 310 312 313 311 309 310 314 315 316 318 317 316 317 318 317 316 315 315 316 319 319 319 321 323 324 325 325 325 324 324 325 325 324 324 324 321 322 324 322 318 314 314 314 311 311 313 315 321 326 325 323
301 302 301 301 301 301 301 301 302 302 302 303 303 303 303 303 303 303 303 305 304 302 303 304 306 308 309 310 311 310 311 312 312 311 311 310 310 311 312 311 310 308 308 310 313 315 317 318 316 316 317 318 316 315 315 316 317 318 319 320 321 322 323 324 325 325 324 325 325 324 325 324 322 322 323 323 319 313 313 315 315 314 314 315 320 324 324 321
300 300 300 301 301 300 300 301 301 302 302 302 303 303 302 302 304 303 302 305 307 305 302 305 307 306 306 308 310 311 311 312 314 315 312 311 311 312 312 311 309 309 309 309 309 310 314 317 315 315 317 318 316 316 315 315 316 318 318 318 319 320 321 323 323 324 324 324 324 324 325 323 320 322 322 322 320 316 315 318 318 317 316 317 319 321 321 320
299 298 299 302 301 301 301 300 301 302 302 302 302 302 302 302 304 303 301 302 305 305 304 306 306 303 302 304 306 310 311 311 314 315 311 310 311 312 311 311 309 310 310 309 308 309 311 314 315 316 317 317 316 316 316 316 318 320 319 318 318 319 320 321 323 323 323 324 325 324 323 322 322 322 321 321 321 319 317 317 318 318 318 318 319 319 318 317
Wind_Speed
32 32 33 32 30 28 28 28 27 26 25 23 22 22 22 21 20 19 19 19 19 18 17 16 15 16 17 17 17 17 18 19 20 20 20 18 25 26 20 19 19 15 8 6 9 9 8 9 9 8 5 3 1 1 1 1 1 1 3 3 4 4 4 4 5 4 3 4 5 5 4 7 5 2 1 3 6 3 4 5 3 5 6 2 4 17 33 34
33 32 32 32 32 29 28 29 28 27 25 24 23 22 23 22 21 20 19 20 19 18 18 16 16 16 17 18 18 18 18 20 19 20 25 24 26 28 23 20 19 19 14 9 10 9 7 7 8 6 4 2 1 1 1 1 1 2 3 3 5 5 4 4 4 3 1 4 6 6 5 7 6 5 3 3 2 2 5 4 4 5 6 5 11 25 33 33
34 33 32 32 32 30 29 29 28 27 26 25 24 23 23 23 23 22 20 19 19 19 18 17 17 16 17 19 18 19 17 15 14 19 28 31 30 28 25 23 20 20 20 15 11 11 8 9 10 7 3 2 2 2 2 1 2 2 3 3 6 5 3 4 5 5 5 4 5 5 3 4 5 5 3 5 5 4 6 3 1 2 2 5 11 22 30 30
35 33 33 32 31 31 29 29 28 27 27 26 25 24 24 23 24 24 21 20 19 20 19 18 17 16 17 18 19 21 14 7 10 18 28 32 33 30 26 26 22 19 22 20 15 11 8 8 9 7 3 3 2 2 3 3 2 2 4 5 5 5 3 6 6 6 5 5 5 4 3 2 4 2 3 8 7 3 6 8 8 9 10 10 10 17 25 26
36 35 33 33 32 31 30 30 28 27 27 27 26 25 24 24 24 24 23 20 19 20 19 19 18 17 17 17 20 21 13 3 7 17 31 35 34 32 29 28 25 21 21 23 18 12 9 5 4 5 3 3 2 2 3 6 3 2 6 7 5 4 3 6 5 5 4 2 3 4 4 3 2 1 4 10 9 6 7 9 10 11 14 15 15 18 21 22
37 35 33 33 32 31 31 30 28 27 27 27 26 25 25 24 24 24 23 21 20 20 19 19 18 17 17 17 22 24 14 5 3 11 28 36 37 34 31 29 26 24 23 23 20 13 8 4 4 4 2 3 5 4 4 5 4 3 6 5 6 5 5 5 2 3 2 2 3 4 3 3 5 2 5 10 9 7 5 8 9 10 17 21 20 19 17 17
37 36 34 33 32 31 31 30 29 28 27 27 26 25 25 24 24 24 22 21 20 19 20 19 18 16 16 17 22 21 12 8 4 6 14 29 38 35 33 31 26 27 25 24 20 11 6 6 6 4 4 4 5 6 5 4 4 5 6 3 6 7 7 8 5 3 2 3 4 3 2 3 7 4 3 7 10 7 4 7 10 11 17 19 17 16 17 19
38 36 35 34 33 32 31 30 29 28 27 27 26 25 25 24 24 24 22 21 19 20 20 19 18 15 16 19 16 9 9 15 11 1 1 16 34 36 34 32 29 29 28 27 22 13 8 8 8 5 5 5 5 6 5 3 3 6 7 3 3 5 7 9 8 5 4 5 3 3 1 5 8 3 2 7 10 8 4 5 10 11 14 15 15 15 16 17
38 37 35 34 34 33 31 31 30 29 27 27 27 26 25 24 24 24 23 22 20 21 20 19 18 13 18 18 9 6 13 24 25 13 8 8 28 37 37 35 32 31 27 27 25 18 11 8 8 5 4 5 5 5 5 5 4 7 9 6 3 5 6 6 6 7 6 4 2 3 5 7 5 1 3 9 9 6 3 7 10 12 12 13 13 15 15 15
39 38 35 35 35 34 33 32 31 29 28 27 26 26 26 25 24 24 23 22 21 22 20 20 18 15 19 14 8 10 10 19 30 24 15 9 25 37 39 39 36 32 27 24 25 20 11 8 9 5 3 3 3 4 5 7 5 6 9 8 7 8 7 4 6 7 5 4 5 7 7 7 2 1 5 8 7 5 6 7 10 13 12 13 12 13 16 16
40 38 36 35 34 34 34 33 32 30 28 27 26 26 26 25 25 25 24 22 21 22 21 20 18 17 18 10 8 9 1 10 25 26 19 13 26 37 38 40 37 33 27 20 24 25 17 14 14 7 2 2 1 2 3 4 4 5 6 6 9 10 8 5 5 7 4 3 6 7 6 5 2 4 7 6 4 6 8 7 10 12 11 13 12 11 13 16
40 39 37 36 35 34 34 33 32 31 29 27 26 26 26 25 26 25 24 22 21 22 22 20 17 18 17 8 9 11 3 6 16 26 27 18 27 37 36 36 35 34 28 19 20 25 22 18 16 7 4 4 2 1 2 2 2 5 6 5 7 8 9 8 6 5 5 4 6 7 4 5 6 11 8 5 4 6 8 8 9 11 10 11 11 10 10 14
40 39 37 36 35 34 34 33 32 31 29 27 26 26 26 26 25 26 24 22 21 21 21 19 15 18 15 5 8 15 14 10 12 22 28 22 25 31 33 32 32 32 29 23 20 21 23 21 17 8 3 5 3 2 1 3 2 5 6 4 5 6 7 9 6 5 7 5 7 7 4 7 11 13 7 6 6 7 7 8 9 9 8 9 10 9 9 12
40 39 37 36 35 34 33 33 32 31 29 27 26 26 26 26 25 26 25 22 21 20 19 17 16 17 12 6 6 10 15 14 14 22 27 27 24 24 27 27 27 25 22 22 20 18 21 21 15 5 1 3 2 1 3 3 2 3 5 4 4 5 4 6 6 7 7 5 7 8 5 9 12 10 6 8 7 8 8 8 9 9 8 9 9 10 10 12
40 39 36 35 35 34 33 33 32 30 29 28 27 26 26 26 26 26 25 24 21 19 18 15 16 13 5 7 8 9 14 13 16 24 29 31 26 19 22 25 23 22 18 17 17 16 19 19 11 4 1 1 3 2 2 2 2 1 5 6 5 6 3 4 6 10 10 4 4 7 4 9 11 9 8 9 9 10 11 10 10 10 10 10 9 10 10 11
40 39 37 35 35 34 34 33 32 30 28 27 27 26 26 26 26 25 24 24 20 19 18 13 17 13 1 4 4 7 12 12 18 25 27 32 29 21 22 24 19 18 18 16 18 17 17 15 5 2 3 2 4 4 1 1 3 3 6 6 5 7 4 3 4 9 11 5 3 6 5 6 7 7 5 5 9 11 11 11 10 11 11 10 9 10 10 10
40 39 37 36 35 35 34 33 32 31 29 27 27 26 25 24 24 23 23 23 20 21 18 13 17 11 3 3 3 5 9 12 22 27 26 29 29 27 26 18 12 15 16 13 14 13 11 9 3 0 3 3 5 5 3 6 9 7 6 5 4 5 6 3 2 5 8 6 5 8 7 10 9 5 4 2 5 9 9 11 10 9 10 10 9 9 10 10
39 39 37 36 35 34 33 33 33 32 30 28 27 25 24 23 23 22 21 20 18 19 13 9 15 9 6 9 6 4 10 14 24 29 27 24 27 33 28 15 12 16 14 7 7 7 4 3 3 4 3 4 6 8 10 11 9 9 7 5 3 2 6 7 4 4 8 8 8 10 9 15 14 9 6 4 3 7 10 11 8 8 9 10 10 10 11 11
39 38 37 36 35 34 33 33 33 32 31 29 26 24 20 17 15 15 14 13 11 10 7 7 12 7 4 9 6 3 9 17 22 26 25 23 25 29 23 17 17 15 11 6 6 7 4 2 4 7 8 11 14 16 17 8 3 8 8 5 6 5 6 9 7 5 9 9 9 11 10 14 16 12 11 8 5 7 9 9 7 8 9 10 10 10 11 12
39 38 37 36 36 34 34 34 33 33 32 29 27 21 13 10 7 6 7 9 8 2 4 11 13 4 4 3 8 8 10 14 14 17 25 27 25 21 13 11 13 10 11 11 8 7 6 7 8 12 16 19 19 18 17 7 3 4 7 6 9 9 8 8 8 5 7 8 9 11 11 15 17 13 13 11 6 6 7 8 8 8 8 9 10 10 11 12
38 38 36 36 36 35 34 35 33 33 31 31 30 15 5 11 8 5 8 7 7 3 3 13 15 4 4 3 8 11 8 6 6 11 23 29 24 17 9 9 12 8 10 14 9 6 7 11 14 18 19 17 17 15 14 11 5 3 6 7 8 10 9 7 8 7 7 7 8 8 11 16 17 14 13 10 7 8 10 9 10 10 9 8 9 12 12 10
38 37 36 35 36 35 34 34 33 33 31 31 30 11 6 15 7 6 12 5 4 1 4 10 14 5 3 4 5 9 7 4 5 8 19 26 20 14 9 10 13 11 11 12 8 6 8 12 19 21 15 10 12 14 14 14 11 6 4 6 7 8 6 5 7 6 6 6 6 8 10 14 17 15 14 10 8 9 11 11 11 11 10 9 10 12 12 10
38 37 37 35 35 35 34 35 33 33 32 30 27 14 11 16 9 14 17 3 2 3 2 5 10 8 4 2 2 5 5 5 7 8 16 21 15 13 13 13 15 13 12 13 10 9 9 14 22 16 10 10 11 13 14 12 9 8 5 6 7 7 6 7 6 4 5 5 4 6 8 10 13 13 12 10 8 9 11 11 11 10 10 13 13 12 12 13
38 37 37 36 36 34 34 36 33 33 34 31 27 21 17 17 18 24 14 2 2 3 1 2 2 6 6 3 5 6 3 3 6 8 12 15 12 12 12 14 17 13 12 17 17 15 13 14 14 11 12 16 14 12 14 11 8 11 10 8 6 6 7 8 4 2 3 4 3 2 5 8 9 12 12 8 7 9 11 10 10 10 11 13 12 12 13 14
37 37 36 37 36 34 36 34 29 31 32 26 25 25 21 18 23 26 11 3 3 0 1 3 1 4 7 5 8 7 3 2 5 7 6 6 7 9 10 10 11 13 16 20 18 14 14 9 13 15 17 18 15 12 14 12 9 10 13 12 8 5 4 4 2 2 2 7 4 5 5 8 6 11 14 9 7 10 10 10 13 12 11 12 11 12 12 12
37 36 36 37 36 36 33 21 22 32 26 17 24 28 24 22 26 23 8 3 3 1 5 6 3 8 10 7 6 6 3 4 7 8 8 5 5 2 7 8 6 11 17 18 11 7 9 11 17 21 18 14 14 13 14 13 9 9 13 13 9 6 5 3 3 5 5 7 3 7 8 8 3 8 13 10 11 13 11 11 14 13 12 13 13 13 12 12
36 35 37 36 37 39 26 12 23 30 16 13 27 31 25 26 26 14 3 0 3 3 6 5 4 10 12 9 11 9 3 2 5 7 9 10 5 3 3 7 7 10 11 10 7 5 10 14 16 19 17 14 14 14 15 16 11 9 8 10 11 11 10 5 3 6 5 2 2 6 8 8 8 8 7 8 10 12 13 12 12 13 15 16 15 14 14 14
36 36 37 36 40 41 25 19 28 20 11 20 31 30 24 23 20 8 1 3 2 4 6 4 4 8 7 8 13 10 2 4 6 4 6 11 9 1 2 7 9 13 15 12 11 10 16 20 20 21 18 13 15 16 16 17 12 6 7 9 10 9 6 2 3 5 3 2 5 7 4 5 11 5 1 4 7 10 13 13 12 14 18 19 16 14 14 14
36 36 37 38 41 38 25 26 30 17 18 30 31 29 26 20 14 5 0 3 1 2 4 5 6 6 5 7 11 10 3 3 4 2 6 9 7 2 2 5 8 12 17 16 15 11 12 18 20 20 15 13 17 15 15 18 13 5 10 8 4 5 3 2 3 3 1 1 10 10 7 7 11 5 4 4 8 12 11 10 13 16 19 18 14 12 12 12
37 36 38 40 36 31 23 24 28 25 27 33 32 32 28 17 7 3 4 4 2 2 2 5 7 7 10 9 7 10 8 3 3 3 4 4 4 2 1 2 4 8 12 14 14 6 2 9 11 11 11 11 12 11 14 19 12 8 9 7 7 5 3 3 2 2 2 6 14 13 10 9 10 6 9 7 7 10 10 7 10 15 17 16 12 12 12 11
37 36 38 38 32 30 21 14 23 30 31 36 36 30 20 7 1 4 5 2 3 3 3 5 7 10 16 14 8 8 9 4 2 4 3 2 5 3 1 4 5 5 7 10 11 5 2 7 6 5 8 9 10 9 9 10 11 9 6 6 5 1 2 2 2 2 4 8 11 12 10 8 12 9 8 9 6 9 12 10 12 16 16 13 11 12 12 11
37 37 38 36 32 31 21 16 28 34 36 40 32 17 9 3 2 4 2 1 3 5 6 7 8 11 16 14 9 9 9 5 3 6 6 3 4 4 3 5 4 3 5 9 11 7 4 7 9 8 10 13 14 9 5 6 9 8 6 8 7 3 2 4 3 2 6 8 5 9 13 9 15 11 5 8 7 8 12 12 15 17 13 11 10 11 10 9
37 38 38 36 34 29 23 27 37 37 41 40 22 6 4 4 5 4 2 2 2 2 6 8 9 11 13 10 7 8 7 4 5 7 6 3 3 7 7 7 6 2 2 9 11 10 6 6 12 12 8 12 16 11 7 7 9 9 10 11 10 6 5 8 7 3 7 8 3 5 11 9 15 10 4 9 10 9 11 11 12 12 10 10 9 8 8 7
37 38 35 33 32 28 27 34 40 42 43 31 12 6 7 5 3 5 4 4 2 2 6 9 11 12 12 9 7 8 5 3 6 7 6 5 3 8 9 9 9 2 2 6 8 11 11 8 13 15 10 14 18 16 14 12 11 13 10 9 11 8 6 8 8 5 5 3 1 3 6 7 10 6 3 7 8 7 8 9 11 9 8 8 6 5 7 7
36 36 33 30 28 26 30 37 42 45 36 16 6 8 9 6 2 4 5 4 2 3 6 9 12 11 10 6 5 8 4 2 7 6 5 7 5 9 9 7 9 6 2 5 4 9 13 7 11 15 11 18 21 15 15 13 9 8 5 6 10 7 4 2 2 4 3 2 2 4 4 5 5 6 8 6 6 7 7 7 9 9 8 6 6 7 6 7
33 32 28 26 26 29 35 41 44 43 27 9 6 7 6 4 2 3 6 5 4 6 9 10 8 8 8 4 4 9 4 2 8 6 4 7 6 7 7 3 8 8 4 3 2 6 10 6 11 14 9 18 22 14 16 15 9 7 7 8 6 2 6 5 1 1 3 1 3 4 6 6 4 9 12 9 8 8 8 9 10 10 8 6 7 8 7 7
28 24 17 16 25 33 38 42 44 36 18 8 8 6 2 2 2 5 6 4 6 9 9 7 5 6 7 5 4 9 6 2 6 6 4 5 5 6 7 3 7 10 7 4 3 4 5 4 9 16 14 18 19 14 16 15 10 8 10 9 4 3 2 3 2 1 3 3 3 4 11 8 3 7 7 7 12 12 9 10 11 9 8 9 10 8 8 9
22 16 9 9 25 35 38 42 38 23 9 7 8 4 1 1 2 4 6 6 7 8 7 4 5 6 6 6 5 7 8 5 5 6 5 5 5 8 12 6 7 12 9 7 2 6 3 2 3 10 13 11 10 12 13 10 4 3 7 9 7 2 3 4 3 3 4 5 3 4 8 6 7 9 4 4 12 14 11 9 10 11 10 11 11 9 9 9
19 10 4 7 25 35 39 40 28 11 4 6 6 4 2 2 2 3 6 8 6 5 6 3 3 4 4 6 5 6 8 8 7 6 5 5 4 7 14 8 6 12 10 9 5 6 4 4 3 3 6 8 7 10 12 9 2 2 3 7 4 2 4 5 3 2 4 5 3 4 4 4 9 10 7 9 11 11 12 8 8 11 10 10 9 8 9 8
10 5 2 9 24 34 39 31 14 5 4 4 4 3 3 2 2 1 3 7 4 2 4 3 3 4 3 4 5 6 7 7 8 6 4 5 4 4 9 9 7 11 12 10 5 5 5 3 3 1 2 8 9 9 14 17 11 5 5 8 6 3 2 3 3 2 3 4 4 5 6 7 6 6 12 16 14 12 13 10 9 9 8 9 9 9 9 8
3 4 2 9 24 33 30 16 4 4 4 1 1 3 3 3 3 2 3 5 4 2 3 5 5 4 3 3 3 5 6 5 6 5 3 5 5 4 5 9 10 10 10 8 3 4 3 3 3 4 4 8 5 3 8 14 16 15 11 12 13 9 7 7 8 4 3 4 5 5 9 9 5 5 12 16 16 16 14 11 10 9 8 10 9 9 9 8
3 4 2 11 26 28 16 4 1 3 2 2 3 2 3 2 3 3 2 5 5 2 3 4 3 3 3 2 1 3 4 4 5 5 4 6 7 4 3 7 8 8 7 5 3 4 1 3 2 4 4 4 2 1 1 2 8 10 7 11 14 11 9 11 11 7 5 4 2 1 6 8 4 6 9 11 12 13 9 8 8 7 9 10 9 9 10 9
3 4 6 13 22 20 8 2 3 3 1 2 3 2 1 1 3 2 2 3 3 2 3 3 2 2 2 2 2 3 3 3 5 6 4 4 5 4 5 9 8 6 5 3 2 3 2 1 2 1 0 2 3 1 3 4 3 4 4 6 11 12 12 10 6 6 6 7 5 3 6 8 5 3 5 6 7 7 5 6 7 7 6 8 10 10 9 8
3 4 5 9 13 12 5 1 4 5 4 4 4 3 2 2 3 3 1 1 1 3 4 2 2 2 2 3 3 3 3 1 2 4 2 2 2 3 3 10 10 7 5 4 4 4 2 1 1 1 2 1 2 2 1 1 3 3 5 8 11 15 13 4 2 3 6 11 11 8 9 9 5 3 2 2 4 6 7 6 6 6 6 7 9 8 7 7
4 3 2 5 8 6 2 0 3 6 8 8 6 4 3 3 3 2 3 1 0 4 5 2 3 5 4 3 3 2 2 0 1 1 1 1 2 3 3 4 8 8 6 8 10 6 3 3 1 2 4 4 5 4 2 3 3 2 4 9 13 18 17 9 5 6 8 11 11 10 10 7 4 4 4 3 2 6 8 7 5 6 6 7 7 6 6 5
3 2 2 3 4 3 1 1 1 5 8 9 7 4 4 4 1 1 3 1 1 3 5 2 4 6 4 4 4 2 1 1 1 1 2 1 2 2 4 4 4 5 5 12 13 7 2 3 5 5 5 2 2 3 2 2 4 6 10 14 17 21 22 16 10 9 11 9 9 13 13 7 3 4 5 5 5 6 7 6 6 6 6 6 6 5 3 3
3 2 3 4 2 2 2 1 1 3 4 5 4 3 6 8 4 0 2 1 1 2 4 2 3 4 4 4 5 3 2 1 2 0 2 2 2 3 5 5 3 4 5 12 11 6 3 4 8 11 9 4 2 4 4 4 7 10 14 18 20 21 23 19 14 15 15 9 9 16 18 13 9 8 7 7 6 6 6 7 7 6 5 4 3 3 4 5
2 1 0 2 2 3 3 3 5 5 4 3 2 2 7 9 7 3 2 1 2 2 3 3 2 4 7 6 4 4 4 3 1 1 1 1 2 2 4 3 1 2 3 9 7 5 3 4 7 11 11 9 5 2 5 4 9 10 12 16 17 18 23 22 21 22 18 13 14 17 19 18 11 6 7 8 8 8 8 8 5 3 3 2 2 3 5 6
3 2 1 3 3 3 5 7 9 9 6 4 2 2 6 8 6 3 2 2 2 2 2 4 2 3 6 5 5 4 4 3 1 3 2 1 2 1 1 1 3 6 3 4 5 3 3 4 6 9 11 10 7 4 2 3 6 8 11 14 12 13 18 20 22 22 14 10 13 10 11 14 9 7 9 10 8 8 5 2 2 3 4 5 5 6 7 8
3 2 2 3 3 4 6 7 9 9 6 4 2 2 4 7 6 2 1 4 4 0 2 5 5 4 5 5 5 4 6 6 4 4 5 3 2 2 1 1 0 5 6 2 2 2 3 5 6 7 7 9 7 7 5 4 4 7 11 14 13 12 12 13 15 14 7 9 14 8 8 11 7 9 10 6 5 5 2 2 5 6 6 6 6 7 8 9
3 3 5 5 4 4 5 4 6 7 5 3 3 4 5 6 7 4 1 3 7 5 4 7 7 4 4 4 4 4 7 7 7 8 9 7 4 4 3 2 2 2 4 3 2 3 4 2 4 6 5 8 9 10 9 6 3 5 9 13 15 13 11 10 10 11 11 14 16 11 10 11 5 8 8 5 4 5 5 6 7 6 5 7 8 10 11 11
4 5 5 6 3 3 4 3 4 5 4 3 3 4 5 6 6 6 3 0 2 5 7 9 7 4 3 3 5 8 9 10 8 8 8 6 5 5 4 5 6 4 2 2 1 1 2 2 1 5 6 7 9 12 9 5 3 7 10 13 16 16 14 12 12 13 12 11 11 11 11 8 5 9 9 8 7 8 8 8 7 7 7 8 10 11 12 13
Wind_Direction
227 230 231 231 230 226 225 223 222 224 225 225 226 228 229 230 233 234 233 234 233 230 234 234 231 229 226 226 223 221 222 221 220 216 218 221 224 227 225 215 205 192 180 190 206 209 208 212 220 205 178 167 165 175 216 298 83 101 120 165 222 208 221 194 193 200 165 255 253 242 211 160 177 189 159 46 46 80 74 26 25 19 17 126 159 152 157 163
225 228 231 230 230 227 224 222 220 222 223 224 224 226 229 229 232 233 232 233 233 232 233 234 232 228 226 226 220 217 221 220 219 222 224 226 229 231 229 220 211 205 201 196 210 209 191 204 205 170 136 166 227 157 187 255 158 167 141 185 221 196 221 213 215 234 187 266 251 233 204 174 186 168 145 131 145 131 101 17 0 45 35 67 123 142 152 160
221 225 228 228 228 227 224 222 219 219 221 222 223 225 227 230 233 232 232 233 233 232 232 234 232 227 227 227 220 215 214 216 227 232 229 229 231 230 227 224 215 211 211 202 210 217 210 214 197 156 127 203 217 147 166 228 208 194 154 210 231 200 240 264 263 252 228 239 236 236 202 180 204 169 145 146 162 183 159 172 139 143 146 120 133 144 152 161
219 220 225 226 227 226 224 222 219 218 219 221 222 223 225 229 232 232 233 232 233 232 231 232 230 228 225 226 223 209 194 216 242 232 230 229 229 228 224 222 215 211 215 210 213 219 220 230 203 161 141 212 232 122 166 222 208 175 184 214 222 180 220 260 258 254 236 211 191 194 148 186 231 184 156 139 141 231 224 203 187 179 170 154 154 154 157 163
218 217 221 224 225 225 224 222 218 217 218 220 221 222 224 227 231 234 233 232 232 231 232 231 231 231 223 225 222 195 164 227 231 217 230 229 224 223 221 222 216 212 217 213 214 216 222 245 206 168 144 195 195 115 209 225 177 174 227 222 211 168 197 252 250 248 243 186 141 143 151 189 190 178 175 157 168 219 221 210 197 174 163 163 164 163 164 167
217 215 216 221 223 223 223 221 219 217 216 218 219 221 223 225 230 233 231 230 230 231 232 231 233 229 222 226 215 186 169 234 175 189 224 224 221 218 215 220 215 214 219 212 209 207 212 211 181 182 163 184 191 189 229 224 174 216 252 223 215 213 213 244 237 237 243 104 130 164 179 163 147 220 201 178 201 217 202 190 187 176 167 164 162 164 169 174
216 214 213 217 220 220 221 220 219 217 216 215 217 219 220 223 227 230 228 225 227 230 228 230 231 224 219 220 205 188 191 230 166 144 212 215 216 212 210 216 212 214 216 206 200 189 185 183 182 176 172 202 204 207 223 214 194 219 248 221 214 225 220 232 229 236 216 176 208 167 112 167 178 207 181 199 228 234 230 181 168 166 161 158 160 169 178 181
215 213 211 214 217 218 219 220 218 216 215 215 215 216 217 220 224 227 225 221 223 226 226 227 226 218 212 206 196 197 219 215 198 144 290 205 208 205 203 207 207 211 208 201 196 179 171 182 186 173 185 214 199 202 201 190 216 222 238 235 209 225 224 236 236 226 214 217 226 133 152 226 205 196 168 222 238 236 226 157 148 147 152 161 170 179 183 187
216 213 210 212 215 216 217 219 218 215 214 214 214 214 216 218 220 223 221 218 219 223 224 223 221 217 211 202 191 230 225 213 212 231 290 213 201 200 195 197 201 205 201 202 199 184 176 181 188 169 167 200 189 196 182 180 227 220 229 240 228 239 235 235 227 209 205 221 226 180 239 257 231 239 254 237 232 219 153 123 141 146 159 175 179 184 187 190
215 212 210 211 213 215 216 217 217 214 212 212 213 213 214 217 218 220 217 214 217 221 222 221 218 215 211 197 196 235 231 219 217 223 255 230 192 192 191 193 196 197 196 198 198 190 181 170 165 138 122 163 176 201 180 184 224 219 223 241 239 242 243 212 205 207 192 209 205 192 233 259 267 260 244 248 230 179 117 121 151 155 172 185 185 190 191 195
214 212 209 210 212 214 214 215 216 214 211 210 211 211 212 215 216 216 215 213 215 219 221 220 217 214 212 196 204 228 136 217 220 216 229 217 187 188 189 190 191 192 191 193 199 196 187 167 145 122 131 153 129 272 238 210 234 234 225 251 250 246 251 219 208 216 178 215 199 175 241 273 327 244 222 234 222 163 141 146 162 169 182 188 190 194 194 202
214 211 208 209 211 212 212 213 214 214 212 209 210 210 210 212 213 213 213 212 213 216 219 218 216 212 210 211 227 227 179 203 216 211 214 207 191 191 189 189 190 192 190 187 200 200 192 175 151 145 187 153 130 239 281 299 290 257 237 255 261 253 250 227 214 209 177 210 180 145 274 267 236 237 212 187 179 150 155 162 173 183 187 188 192 195 199 208
211 210 208 208 210 211 211 211 212 213 211 209 208 209 210 211 210 210 210 210 210 212 214 213 211 208 207 223 233 227 229 219 197 202 206 201 196 193 190 193 193 194 194 191 193 194 195 187 169 166 166 137 156 217 316 341 299 249 231 238 261 259 246 221 208 183 176 203 164 148 261 246 236 241 214 193 175 142 164 179 184 191 190 192 192 195 205 207
208 208 207 206 208 210 210 211 211 210 209 208 207 208 209 209 208 207 207 206 206 208 208 204 203 202 207 235 240 231 235 227 199 191 192 190 186 184 190 196 196 198 199 192 182 179 188 187 171 146 89 132 132 350 7 357 303 252 226 221 221 233 244 215 195 165 179 213 158 158 242 250 250 252 222 218 193 166 190 196 192 197 194 197 195 198 206 205
207 206 205 205 207 208 208 209 209 207 206 205 205 207 208 207 207 206 205 202 201 201 194 192 195 190 210 253 253 244 229 218 197 186 182 180 174 170 183 188 192 197 195 182 168 165 171 172 165 139 149 149 101 71 30 356 327 280 224 224 203 217 259 242 202 175 187 224 166 168 223 261 265 260 228 216 202 193 206 205 195 200 197 197 199 201 208 211
205 204 203 204 205 206 207 207 207 205 203 203 203 206 206 206 205 205 205 197 192 192 183 182 192 186 226 240 209 221 211 192 190 189 184 181 176 167 167 168 172 179 177 166 157 155 156 157 160 137 130 130 155 165 112 306 268 230 226 230 208 211 233 270 235 198 193 180 198 212 224 258 268 267 247 218 209 206 213 217 204 200 201 199 200 202 208 213
203 202 202 202 203 205 205 206 206 203 201 200 201 202 203 203 203 204 202 194 185 182 176 173 178 181 284 245 168 195 188 174 184 188 186 187 182 167 155 148 140 144 146 145 152 152 157 164 162 121 110 127 170 165 184 229 229 222 223 230 227 208 197 206 255 223 202 178 208 228 236 242 246 265 299 311 221 213 221 227 214 205 207 204 203 205 208 210
200 200 200 201 202 202 202 205 203 201 198 197 197 196 197 199 198 197 195 189 175 167 170 165 159 165 267 233 209 184 169 169 176 181 186 187 182 172 160 148 131 128 127 126 161 169 177 177 164 182 166 162 171 174 201 217 212 206 209 216 232 225 205 206 214 207 199 206 217 213 228 243 248 256 262 269 197 201 226 231 222 213 210 211 210 209 210 211
198 198 199 199 200 199 200 202 201 200 195 193 193 184 181 181 183 187 180 171 164 158 166 173 166 171 256 209 182 115 149 164 172 177 182 182 180 172 161 152 142 137 144 150 186 188 163 129 169 189 189 193 193 195 204 200 134 187 198 204 212 223 224 215 224 215 189 208 227 212 223 241 246 248 244 245 188 185 230 239 237 225 215 214 213 213 213 213
196 196 196 198 199 198 199 199 199 198 192 189 180 164 159 157 157 180 166 172 197 207 137 172 186 182 23 133 136 119 140 158 170 176 180 179 169 161 153 149 147 151 166 167 178 181 166 177 196 202 200 199 197 199 208 209 71 143 176 199 213 221 230 214 225 233 181 201 230 215 225 240 243 243 241 241 211 204 236 236 236 231 224 222 216 219 217 217
195 194 195 197 197 197 198 196 196 193 190 184 172 159 165 171 171 182 164 178 210 331 55 176 188 178 39 69 126 129 130 146 179 188 184 176 161 158 164 157 161 177 181 169 156 153 183 199 206 210 207 199 196 199 207 213 203 161 182 205 216 222 229 215 219 225 183 202 232 212 224 242 244 244 243 235 212 228 234 224 231 228 225 230 222 225 222 223
193 193 193 195 196 196 195 194 193 190 186 179 173 181 202 182 194 170 154 151 204 275 17 170 187 192 74 63 113 128 119 142 202 207 185 175 169 172 173 168 177 184 181 168 145 156 194 210 212 211 204 193 198 199 202 209 210 206 195 200 217 219 226 238 229 220 193 205 229 215 222 243 246 244 244 231 206 228 233 221 225 220 218 228 225 226 224 224
193 192 191 194 194 193 193 192 191 186 182 177 179 191 189 187 187 156 151 114 181 190 18 158 187 199 160 88 150 136 124 156 191 211 189 180 181 177 172 177 184 183 177 172 171 179 191 211 212 200 179 192 200 196 199 206 212 215 198 196 217 197 191 230 228 207 207 199 191 209 229 249 251 252 252 234 209 230 239 229 228 217 213 225 224 223 221 220
191 190 191 192 191 192 192 190 187 183 182 182 187 192 184 183 170 155 146 48 176 171 211 196 177 189 185 168 172 160 145 162 175 194 193 189 182 169 178 182 182 186 183 181 184 191 203 209 194 167 175 196 196 190 195 198 210 219 213 205 206 181 198 226 215 155 236 227 146 138 263 260 242 247 255 238 211 229 239 233 237 232 223 230 231 228 225 221
188 188 190 191 191 191 187 186 185 181 180 184 192 190 181 180 175 165 141 49 201 153 156 194 350 199 182 150 164 155 129 213 206 180 160 194 190 166 183 188 183 189 183 184 188 198 212 185 147 172 195 193 189 194 195 196 206 220 221 212 192 178 219 243 210 147 233 252 201 134 254 267 224 230 243 235 216 230 235 227 233 237 231 233 236 233 231 228
186 186 188 190 191 186 181 184 183 175 175 187 191 184 176 176 178 172 139 55 229 204 156 168 158 185 175 153 154 127 121 228 214 171 153 205 250 202 193 187 184 195 182 181 192 205 206 167 161 189 196 180 188 205 198 191 201 222 219 203 187 198 235 265 235 200 212 252 220 157 218 266 261 229 233 225 224 228 227 225 228 235 235 232 230 228 228 228
183 184 184 188 187 181 177 167 168 170 171 187 184 178 175 174 171 166 130 288 227 154 147 165 163 178 177 164 152 143 167 193 154 168 177 196 225 337 238 190 178 191 177 175 200 194 179 174 179 191 188 179 191 207 196 184 202 226 196 173 188 208 223 228 210 224 239 299 274 195 209 264 268 242 221 210 224 236 233 227 227 232 237 236 230 225 226 226
182 183 183 185 183 180 175 155 160 169 173 173 174 175 176 168 155 130 97 193 194 125 138 174 163 157 160 157 160 171 210 108 138 188 162 169 187 178 247 226 211 189 173 180 198 184 178 184 185 186 185 187 198 204 189 180 203 215 132 150 191 195 206 201 162 228 281 18 247 224 177 250 258 247 164 187 213 234 235 227 226 231 235 236 233 226 227 229
181 181 183 183 180 179 176 164 164 169 169 168 168 166 161 150 134 93 157 190 144 111 133 152 155 142 137 155 177 199 223 107 152 181 121 145 174 151 188 244 257 211 184 191 201 188 186 191 186 183 182 192 201 197 177 183 205 180 123 124 117 107 95 70 132 195 335 279 239 221 175 224 254 223 158 208 227 225 225 222 223 229 234 235 231 226 226 228
180 181 183 180 176 174 170 166 168 168 165 165 159 148 137 128 126 131 189 188 121 131 142 150 170 161 150 156 184 206 213 189 146 121 106 135 138 83 283 221 265 238 196 199 215 215 169 181 181 183 186 189 187 172 176 188 181 125 118 105 82 75 58 50 68 106 129 243 240 220 188 212 257 231 178 203 221 201 202 218 225 232 238 236 229 225 224 220
180 182 181 177 174 171 163 156 167 166 161 157 148 136 124 109 155 173 182 173 103 144 158 148 162 156 159 167 176 191 202 211 168 147 145 146 137 112 312 213 213 227 195 193 213 230 113 160 167 180 179 150 135 151 170 169 147 130 130 127 131 105 24 37 13 85 195 241 237 208 173 189 244 241 194 210 207 175 187 205 222 232 234 230 227 226 223 218
181 182 178 174 172 170 164 156 162 162 157 151 141 129 128 137 206 189 181 151 148 181 174 157 160 162 168 173 172 176 184 186 182 191 187 161 167 173 184 210 207 202 197 187 189 198 193 175 168 173 172 149 145 156 143 136 154 155 145 150 165 180 169 203 222 168 215 244 241 177 155 181 241 240 200 222 228 200 199 202 216 228 229 226 226 228 224 215
182 180 173 170 169 169 167 159 160 159 152 146 138 130 154 176 196 178 155 184 204 167 144 148 157 159 164 170 177 174 174 182 173 189 201 157 184 211 207 229 250 292 223 194 186 186 191 189 178 174 170 165 165 165 163 164 169 168 164 169 180 179 179 201 202 189 224 238 253 167 165 204 248 248 209 219 223 216 215 219 225 225 225 228 226 228 231 222
179 174 168 166 167 169 166 160 160 156 149 142 138 160 179 201 181 127 137 198 239 80 120 140 147 152 166 176 176 165 165 200 167 163 185 158 170 221 224 234 235 273 335 219 207 185 187 198 183 176 168 173 179 181 174 164 170 185 181 175 187 186 187 202 195 188 216 224 156 165 182 210 231 252 269 237 239 237 223 233 244 238 232 237 243 248 242 234
170 164 159 158 161 165 165 163 160 154 148 143 149 174 191 199 163 128 155 179 184 95 112 137 144 151 174 182 164 174 189 177 155 151 176 179 191 208 215 225 203 189 214 229 224 188 201 221 179 175 170 172 183 187 168 155 170 191 169 181 204 192 152 163 186 169 140 94 148 180 232 234 225 281 292 262 265 267 240 236 248 246 239 237 247 246 234 229
153 148 148 149 153 161 164 162 160 156 151 148 165 187 201 182 170 166 155 152 155 132 124 140 150 155 174 177 163 187 207 100 150 164 177 196 220 201 194 198 172 177 196 217 269 200 206 223 176 172 173 179 186 180 166 167 168 173 179 197 210 145 123 139 196 128 108 179 208 187 242 262 285 285 272 246 248 259 244 239 242 239 233 234 241 239 234 233
136 133 132 137 148 159 163 161 158 158 155 165 183 191 181 156 185 157 136 132 137 133 134 149 165 168 171 173 174 181 185 135 160 180 167 184 219 192 180 177 164 181 185 167 284 272 204 212 183 176 180 188 186 173 176 184 162 159 192 185 133 63 90 136 188 109 106 220 232 199 224 234 230 257 260 238 243 250 238 227 236 239 227 231 240 236 234 238
124 119 102 126 148 157 163 161 157 155 157 178 178 164 111 183 200 156 138 128 122 135 150 154 162 177 180 179 177 171 177 175 169 187 180 177 212 184 176 182 172 186 186 155 213 302 269 227 220 190 185 181 175 169 184 200 163 138 185 165 136 156 193 173 185 172 171 211 246 226 227 224 212 226 247 232 236 245 242 219 220 227 217 220 234 234 235 238
122 113 68 140 151 156 161 160 155 149 167 182 169 158 175 173 175 176 146 126 104 129 154 160 150 161 175 174 163 161 182 185 166 179 194 186 218 184 175 184 176 180 179 156 182 288 282 207 219 215 177 150 158 180 188 196 200 34 147 160 155 209 199 192 190 161 174 204 233 235 227 231 223 213 210 228 232 237 244 234 220 223 213 212 221 223 227 226
119 107 77 154 155 156 157 155 153 154 172 179 165 159 168 159 149 162 128 120 106 114 157 171 147 134 154 163 154 165 188 189 171 183 207 180 198 199 180 183 168 167 165 150 177 276 294 234 200 156 153 161 173 191 187 186 181 162 166 177 181 177 168 216 223 161 158 198 221 238 243 247 241 191 193 216 228 231 234 235 234 233 217 212 216 217 220 216
87 98 100 160 157 155 151 147 146 161 161 139 123 140 153 164 132 85 49 90 109 119 126 133 135 132 137 141 155 168 177 186 177 185 205 189 205 232 201 184 163 153 153 143 176 237 278 283 189 151 178 182 180 200 195 194 186 179 181 184 185 178 164 191 211 186 168 203 195 218 244 251 247 191 192 203 214 225 226 218 226 241 234 225 220 218 218 213
80 112 117 152 159 156 143 125 138 128 133 144 132 127 142 134 102 95 37 58 85 94 87 94 112 122 121 122 139 152 160 178 182 187 205 211 219 231 217 198 176 152 150 149 165 168 134 315 219 169 186 185 153 109 136 196 182 184 201 190 183 181 175 193 205 186 180 204 157 182 261 267 254 197 197 202 211 226 225 200 205 225 234 239 233 224 222 219
76 106 96 126 154 158 133 106 145 110 93 142 111 67 51 78 89 90 39 56 80 77 75 90 105 104 134 151 132 144 164 169 182 202 219 213 232 252 202 193 180 143 142 150 159 147 109 306 240 196 120 3 347 2 50 40 131 181 239 198 181 187 190 198 203 175 183 201 195 220 249 262 272 229 214 231 238 249 246 214 213 215 220 238 240 232 227 223
92 93 77 99 132 145 133 134 142 126 128 125 100 83 52 48 79 90 78 79 113 114 103 117 127 104 136 134 108 142 174 157 184 223 243 192 234 306 214 196 186 166 164 168 160 153 148 207 235 229 154 114 302 278 339 282 183 187 214 196 189 192 188 173 99 142 199 208 202 216 237 246 276 331 336 284 243 244 251 244 231 220 213 225 232 231 227 220
109 76 42 60 75 101 120 236 136 133 137 132 122 120 98 54 44 99 122 86 282 136 121 126 132 109 113 117 79 88 161 157 144 202 314 279 277 330 332 232 203 194 182 161 151 144 160 174 158 231 206 185 205 222 221 201 186 181 198 193 193 191 185 180 174 180 205 206 196 210 234 248 292 332 326 309 203 208 236 256 255 237 225 224 227 230 224 212
129 81 114 82 33 56 83 344 102 134 144 138 129 130 120 101 50 347 102 78 304 119 104 99 115 97 92 118 109 111 203 314 30 147 159 224 268 275 318 323 269 235 179 157 155 139 131 175 177 208 232 215 198 269 314 127 162 189 189 188 194 194 192 192 193 196 200 194 196 214 222 223 233 244 250 242 214 204 217 233 243 245 241 240 252 269 274 250
118 104 145 132 105 119 97 26 114 115 135 137 131 152 139 128 142 48 64 58 271 102 83 66 101 115 136 134 121 146 166 53 14 131 160 197 242 261 284 300 289 259 181 161 159 134 126 196 190 198 217 202 152 296 294 170 183 202 197 196 198 195 194 196 200 204 197 187 206 216 215 214 215 219 223 223 221 226 229 222 221 236 241 240 265 295 296 275
120 123 217 94 109 144 141 161 152 114 92 79 60 121 138 136 145 139 93 17 345 57 75 58 77 146 158 145 117 137 138 90 346 233 147 196 229 277 284 278 344 337 193 179 173 145 162 214 189 191 216 206 165 302 299 208 196 209 212 212 207 199 199 201 207 208 199 199 217 212 208 216 214 199 222 227 213 210 221 221 210 220 236 217 211 239 252 253
114 106 23 43 68 114 113 131 140 126 116 108 71 119 141 137 138 143 127 84 26 2 81 111 146 157 147 131 99 122 154 137 185 234 205 179 209 250 302 290 22 23 30 204 205 168 182 218 186 188 221 221 186 171 250 229 211 214 218 222 221 215 210 208 215 218 209 224 241 220 207 225 212 178 210 223 209 209 227 231 189 205 215 198 199 222 236 240
136 150 142 82 76 98 103 122 135 132 124 111 111 171 150 138 145 160 122 122 132 334 60 122 153 153 144 140 119 145 200 189 169 195 187 164 190 203 182 219 11 31 30 355 278 274 233 208 170 171 225 235 200 170 182 200 216 223 222 223 224 227 227 223 226 228 219 246 252 234 221 238 212 181 210 210 162 183 235 243 217 220 210 187 199 227 236 239
120 127 120 106 95 104 109 117 125 131 143 139 148 172 160 160 168 157 118 148 148 150 156 156 156 139 120 131 143 192 217 200 180 184 185 179 186 189 177 151 135 66 33 33 8 327 289 244 143 149 216 237 204 189 196 182 185 236 232 224 221 224 229 230 229 223 208 223 236 230 235 247 203 172 212 218 153 168 210 231 235 235 208 183 197 222 231 235
97 91 95 98 85 98 115 114 120 136 151 147 145 153 158 178 180 150 135 272 112 131 157 157 143 115 97 142 212 225 214 202 198 194 189 177 154 156 158 144 139 129 107 111 82 328 306 325 178 169 205 235 206 191 189 152 178 239 226 209 209 213 219 226 234 235 225 225 230 225 234 241 159 157 198 217 213 213 216 219 222 224 214 202 206 217 226 231